Snowfall_Accumulation
0.0 0.0 0.0 0.0 0.0 0.0 0.0 0.0 0.0 0.0 0.0 0.0 0.0 0.0 0.0 0.0 0.0 0.0 0.0 0.0 0.0 0.0 0.0 0.0 0.0 0.0 0.0 0.0 0.0 0.0 0.0 0.0 0.0 0.0 0.0 0.0 0.0 0.0 0.0 0.0 0.0 0.0 0.0 0.0
0.0 0.0 0.0 0.0 0.0 0.0 0.0 0.0 0.1 0.0 0.0 0.0 0.0 0.0 0.0 0.0 0.0 0.0 0.0 0.0 0.0 0.0 0.0 0.0 0.0 0.0 0.0 0.0 0.0 0.0 0.0 0.0 0.0 0.0 0.0 0.0 0.0 0.0 0.0 0.0 0.0 0.0 0.0 0.0
0.0 0.0 0.0 0.0 0.0 0.0 0.0 0.0 0.0 0.4 0.0 0.0 0.0 0.0 0.0 0.0 0.0 0.0 0.0 0.0 0.0 0.0 0.0 0.0 0.0 0.0 0.0 0.0 0.0 0.0 0.0 0.0 0.0 0.0 0.0 0.0 0.0 0.0 0.0 0.0 0.0 0.0 0.0 0.0
0.0 0.0 0.0 0.0 0.0 0.0 0.0 0.0 0.0 0.0 0.5 0.3 0.0 0.0 0.0 0.0 0.0 0.0 0.0 0.0 0.0 0.0 0.0 0.0 0.0 0.0 0.0 0.0 0.0 0.0 0.0 0.0 0.0 0.0 0.0 0.0 0.0 0.0 0.0 0.0 0.0 0.0 0.0 0.0
0.0 0.0 0.0 0.0 0.0 0.0 0.0 0.0 0.0 0.0 0.0 0.0 0.0 0.6 0.0 0.0 0.0 0.0 0.0 0.0 0.0 0.0 0.0 0.0 0.0 0.0 0.0 0.0 0.0 0.0 0.0 0.0 0.0 0.0 0.0 0.0 0.0 0.0 0.0 0.0 0.0 0.0 0.0 0.0
0.0 0.0 0.0 0.0 0.0 0.0 0.0 0.0 0.0 0.2 0.1 1.6 0.0 0.2 0.0 0.0 0.0 0.0 0.0 0.0 0.0 0.0 0.0 0.0 0.0 0.0 0.0 0.0 0.0 0.0 0.0 0.0 0.0 0.0 0.0 0.0 0.0 0.0 0.0 0.0 0.0 0.0 0.0 0.0
0.0 0.0 0.0 0.0 0.0 0.0 0.2 0.7 1.1 0.7 0.4 0.0 0.0 0.4 0.0 0.0 0.0 0.0 0.0 0.0 0.0 0.0 0.0 0.0 0.0 0.0 0.0 0.0 0.0 0.0 0.0 0.0 0.0 0.0 0.0 0.0 0.0 0.0 0.0 0.0 0.0 0.0 0.0 0.0
0.1 0.0 0.1 0.0 0.0 0.1 0.0 1.6 2.2 1.8 0.0 0.1 0.4 1.2 0.0 0.0 0.0 0.0 0.0 0.0 0.0 0.0 0.0 0.0 0.0 0.0 0.0 0.0 0.0 0.0 0.0 0.0 0.0 0.0 0.0 0.0 0.0 0.0 0.0 0.0 0.0 0.0 0.0 0.0
0.3 0.0 0.0 0.0 0.0 0.5 1.3 0.8 0.8 3.4 0.0 0.6 0.3 0.0 0.0 0.0 0.0 0.0 0.0 0.0 0.0 0.0 0.0 0.0 0.0 0.0 0.0 0.0 0.0 0.0 0.0 0.0 0.0 0.0 0.0 0.0 0.0 0.0 0.0 0.0 0.0 0.0 0.0 0.0
0.4 0.8 0.0 0.0 0.0 0.0 1.1 1.2 3.6 4.4 3.6 1.1 0.0 0.0 0.0 0.0 0.0 0.0 0.0 0.0 0.0 0.0 0.0 0.0 0.0 0.0 0.0 0.0 0.0 0.0 0.0 0.0 0.0 0.0 0.0 0.0 0.0 0.0 0.0 0.0 0.0 0.0 0.0 0.0
0.1 1.4 0.0 0.0 0.0 0.3 0.7 3.1 5.4 4.4 1.3 2.2 1.5 0.3 0.0 0.0 0.0 0.0 0.0 0.0 0.0 0.0 0.0 0.0 0.0 0.0 0.0 0.0 0.0 0.0 0.0 0.0 0.0 0.0 0.0 0.0 0.0 0.0 0.0 0.0 0.0 0.0 0.0 0.3
0.0 0.5 0.3 0.0 0.0 0.0 0.3 2.0 2.9 7.5 3.7 1.2 2.2 0.9 0.0 0.0 0.0 0.0 0.0 0.0 0.0 0.0 0.0 0.0 0.0 0.0 0.0 0.0 0.0 0.0 0.0 0.0 0.0 0.0 0.0 0.0 0.0 0.0 0.0 0.0 0.0 0.0 0.2 0.1
0.4 0.4 0.0 0.0 0.0 0.0 0.0 0.0 0.9 5.1 7.1 4.9 6.0 1.4 0.0 0.0 1.7 0.0 0.0 0.0 0.0 0.0 0.0 0.0 0.0 0.0 0.0 0.0 0.0 0.0 0.0 0.0 0.0 0.0 0.0 0.0 0.0 0.0 0.0 0.0 0.0 6.4 4.3 5.2
0.0 0.5 0.8 0.8 0.4 0.7 0.5 0.0 0.0 4.5 8.1 6.2 3.7 4.0 0.0 3.6 4.5 1.6 0.3 0.4 0.2 0.0 0.0 0.0 0.0 0.0 0.0 0.0 0.0 0.0 0.0 0.0 0.0 0.0 0.0 0.0 0.0 0.0 0.1 0.0 8.3 5.3 4.6 2.7
0.0 0.2 0.1 0.0 0.0 0.8 1.0 1.2 1.6 2.7 5.5 6.7 4.9 5.1 7.6 10.9 11.9 9.9 7.3 6.4 3.5 3.9 1.7 0.4 0.8 0.0 0.0 0.0 0.0 0.0 0.0 0.0 0.0 0.0 0.0 0.0 0.0 3.4 3.5 7.0 5.2 3.1 2.2 1.8
0.0 0.0 0.0 0.0 0.0 0.8 0.6 0.7 0.9 1.5 2.0 1.9 2.1 3.3 2.1 4.2 7.9 11.6 10.7 9.9 8.1 6.4 6.3 5.0 5.8 0.0 0.0 0.0 0.0 0.0 0.0 0.0 0.0 0.0 0.0 0.0 3.6 4.7 5.2 3.3 2.4 2.1 1.6 0.9
0.1 0.5 0.1 0.0 0.0 0.0 0.1 0.1 0.3 2.6 2.7 3.3 3.9 5.4 3.6 3.0 8.4 10.9 9.4 9.1 9.1 8.4 7.9 7.2 3.5 1.7 0.0 0.0 0.0 0.0 0.0 0.0 0.0 2.6 0.0 8.4 4.3 3.9 2.4 1.7 1.2 0.8 0.5 0.2
0.2 0.4 0.4 0.1 0.0 0.1 0.0 0.0 0.1 0.6 1.3 2.1 3.8 3.6 0.8 4.3 3.2 6.7 7.1 6.9 9.8 8.6 9.8 10.6 9.7 6.5 5.8 5.9 6.3 7.0 7.3 3.4 7.7 6.6 5.6 4.7 2.9 1.5 1.1 0.7 0.4 0.2 0.0 0.0
0.3 0.7 0.5 0.3 0.0 0.0 0.0 0.0 0.0 1.0 1.2 0.4 0.9 0.9 1.2 1.3 0.0 3.5 7.0 7.7 7.5 7.3 8.6 8.4 8.4 8.8 8.6 7.2 7.0 6.7 6.1 6.0 4.9 3.6 2.2 1.4 1.0 0.8 0.4 0.1 0.0 0.0 0.0 0.0
0.1 0.5 0.9 0.0 0.1 0.0 0.0 0.0 0.0 0.0 1.0 0.0 0.0 0.3 0.4 0.0 0.7 3.2 5.8 6.3 6.5 6.7 7.2 7.3 6.9 6.7 5.4 5.1 3.8 2.3 3.0 2.2 1.6 1.0 0.5 0.5 0.3 0.1 0.0 0.0 0.0 0.0 0.0 0.0
0.0 0.2 0.4 0.2 0.2 0.0 0.0 0.0 0.0 0.0 0.5 0.0 0.0 0.0 0.0 0.1 1.4 2.5 3.4 4.0 4.9 5.5 5.8 5.3 4.8 4.4 3.7 3.6 1.7 1.2 1.0 0.4 0.1 0.0 0.0 0.0 0.0 0.0 0.0 0.0 0.0 0.0 0.0 0.0
0.0 0.0 0.0 0.0 0.0 0.0 0.0 0.0 0.0 0.0 0.0 0.0 0.0 0.0 0.0 0.0 0.1 0.3 0.8 1.8 2.9 3.1 3.4 3.3 2.4 2.3 2.3 1.5 0.0 0.0 0.1 0.0 0.0 0.0 0.0 0.0 0.0 0.0 0.0 0.0 0.0 0.0 0.0 0.0
0.0 0.0 0.0 0.0 0.0 0.0 0.0 0.0 0.0 0.0 0.0 0.0 0.0 0.0 0.0 0.0 0.0 0.0 0.0 0.1 0.4 0.8 0.9 1.1 0.3 0.4 0.5 0.3 0.1 0.0 0.0 0.0 0.1 0.1 0.0 0.0 0.0 0.0 0.0 0.0 0.0 0.0 0.0 0.0
0.0 0.0 0.0 0.0 0.0 0.0 0.0 0.0 0.0 0.0 0.0 0.0 0.0 0.0 0.0 0.0 0.0 0.0 0.0 0.0 0.0 0.1 0.2 0.4 0.4 0.3 0.3 0.2 0.2 0.1 0.1 0.1 0.4 0.7 0.3 0.1 0.0 0.0 0.0 0.0 0.0 0.0 0.0 0.0
0.0 0.0 0.0 0.0 0.0 0.0 0.0 0.0 0.0 0.0 0.0 0.0 0.0 0.0 0.0 0.0 0.0 0.0 0.0 0.0 0.0 0.0 0.1 0.1 0.2 0.2 0.1 0.1 0.0 0.0 0.2 0.2 0.8 0.4 0.1 0.1 0.0 0.0 0.0 0.0 0.0 0.0 0.0 0.0
0.0 0.0 0.0 0.0 0.0 0.0 0.0 0.0 0.0 0.0 0.0 0.0 0.0 0.0 0.0 0.0 0.0 0.0 0.0 0.0 0.0 0.0 0.0 0.0 0.1 0.0 0.1 0.1 0.1 0.0 0.1 0.2 0.5 0.6 0.3 0.0 0.1 0.0 0.0 0.0 0.0 0.0 0.0 0.0